Princeton, MN

3:07 PM CDT on May 23, 2017 (GMT -0500)
Princeton Municipal

Weather History for KPNM - March, 2014

Change the Weather History Date:

Friday, March 7, 2014

  Actual Average Record
Temperature  
Mean Temperature 24 °F -  
Max Temperature 30 °F 29 °F 66 °F (2016)
Min Temperature 19 °F 11 °F -18 °F (2008)
Degree Days  
Heating Degree Days 40    
Moisture  
Dew Point 21 °F    
Average Humidity 80    
Maximum Humidity 93    
Minimum Humidity 69    
Precipitation  
Precipitation 0.01 in - - ()
Sea Level Pressure  
Sea Level Pressure 29.93 in    
Wind  
Wind Speed 7 mph (NW)    
Max Wind Speed 17 mph    
Max Gust Speed 22 mph    
Visibility 7 miles    
Events Snow    
Averages and records for this station are not official NWS values.
T = Trace of Precipitation, MM = Missing Value Source: NWS Daily Summary

Daily Weather History Graph

Daily Weather History Graph

Search for Another Location

Airport or City:

Trip Planner

Search our weather history database for the weather conditions in past years. The results will help you decide how hot, cold, wet, or windy it might be!

Date:

Astronomy

Mar. 07, 2014 Rise Set
Actual Time 6:41 AM CST 6:09 PM CST
Civil Twilight 6:12 AM CST 6:39 PM CST
Nautical Twilight 5:38 AM CST 7:13 PM CST
Astronomical Twilight 5:03 AM CST 7:48 PM CST
Moon 10:17 AM CST (3/7) 12:32 AM CST (3/7)
Length of Visible Light 12h 26m
Length of Day
11h 27m
Waxing Crescent, 42% of the Moon is Illuminated
Mar 7
Waxing Crescent
Mar 8
First Quarter
Mar 16
Full
Mar 23
Last Quarter
Mar 30
New

Hourly Weather History & Observations

Time (CST) Temp. Windchill Dew Point Humidity Pressure Visibility Wind Dir Wind Speed Gust Speed Precip Events Conditions
12:12 AM 24.8 °F 15.3 °F 21.2 °F 86% 29.76 in 7.0 mi SSE 9.2 mph - N/A   Mostly Cloudy
12:33 AM 24.8 °F 16.1 °F 21.2 °F 86% 29.76 in 7.0 mi SSE 8.1 mph - N/A   Mostly Cloudy
12:53 AM 26.6 °F 19.1 °F 21.2 °F 80% 29.76 in 7.0 mi SSE 6.9 mph - N/A   Overcast
1:13 AM 26.6 °F 21.2 °F 21.2 °F 80% 29.77 in 7.0 mi South 4.6 mph - N/A   Overcast
1:33 AM 26.6 °F 21.2 °F 21.2 °F 80% 29.77 in 7.0 mi SSE 4.6 mph - N/A   Overcast
1:53 AM 26.6 °F 21.2 °F 21.2 °F 80% 29.77 in 5.0 mi SE 4.6 mph - N/A   Overcast
2:13 AM 26.6 °F 22.6 °F 21.2 °F 80% 29.76 in 5.0 mi SE 3.5 mph - N/A   Overcast
2:33 AM 26.6 °F 21.2 °F 21.2 °F 80% 29.75 in 7.0 mi SE 4.6 mph - N/A   Overcast
2:53 AM 26.6 °F 22.6 °F 21.2 °F 80% 29.75 in 5.0 mi ESE 3.5 mph - N/A   Overcast
3:13 AM 26.6 °F - 21.2 °F 80% 29.76 in 5.0 mi Calm Calm - N/A   Overcast
3:33 AM 26.6 °F 22.6 °F 21.2 °F 80% 29.75 in 5.0 mi ESE 3.5 mph - N/A   Overcast
3:53 AM 26.6 °F - 21.2 °F 80% 29.76 in 5.0 mi Calm Calm - N/A   Overcast
4:13 AM 26.6 °F - 21.2 °F 80% 29.75 in 5.0 mi Calm Calm - N/A   Overcast
4:33 AM 26.6 °F - 21.2 °F 80% 29.77 in 5.0 mi Calm Calm - N/A   Overcast
4:53 AM 26.6 °F - 21.2 °F 80% 29.76 in 5.0 mi Calm Calm - N/A   Overcast
5:13 AM 26.6 °F - 21.2 °F 80% 29.77 in 5.0 mi Calm Calm - N/A   Overcast
5:33 AM 26.6 °F - 23.0 °F 86% 29.76 in 3.0 mi Calm Calm - N/A   Mostly Cloudy
5:53 AM 26.6 °F 22.6 °F 24.8 °F 93% 29.75 in 2.5 mi ENE 3.5 mph - 0.01 in Snow Light Snow
6:13 AM 28.4 °F - 24.8 °F 86% 29.77 in 3.0 mi Calm Calm - N/A   Mostly Cloudy
6:33 AM 28.4 °F - 26.6 °F 93% 29.78 in 2.5 mi Calm Calm - N/A   Mostly Cloudy
6:54 AM 28.4 °F 24.6 °F 26.6 °F 93% 29.79 in 2.5 mi West 3.5 mph - N/A   Mostly Cloudy
7:13 AM 28.4 °F 23.3 °F 26.6 °F 93% 29.81 in 1.8 mi West 4.6 mph - N/A   Mostly Cloudy
7:33 AM 28.4 °F 23.3 °F 26.6 °F 93% 29.82 in 1.8 mi West 4.6 mph - N/A   Overcast
7:54 AM 28.4 °F 24.6 °F 26.6 °F 93% 29.82 in 1.5 mi West 3.5 mph - N/A   Overcast
8:13 AM 30.2 °F - 26.6 °F 86% 29.82 in 1.2 mi Calm Calm - N/A   Overcast
8:33 AM 30.2 °F 26.7 °F 28.4 °F 93% 29.82 in 1.0 mi West 3.5 mph - N/A   Overcast
8:53 AM 30.2 °F 23.4 °F 28.4 °F 93% 29.82 in 1.0 mi West 6.9 mph - N/A   Overcast
9:13 AM 30.2 °F 22.6 °F 28.4 °F 93% 29.84 in 1.0 mi West 8.1 mph - N/A   Overcast
9:33 AM 30.2 °F 21.3 °F 28.4 °F 93% 29.84 in 1.2 mi West 10.4 mph - N/A   Overcast
9:53 AM 30.2 °F 20.2 °F 28.4 °F 93% 29.85 in 1.5 mi West 12.7 mph - N/A   Overcast
10:13 AM 30.2 °F 21.9 °F 28.4 °F 93% 29.86 in 2.0 mi WNW 9.2 mph 16.1 mph N/A   Overcast
10:33 AM 30.2 °F 20.2 °F 26.6 °F 86% 29.87 in 3.0 mi WNW 12.7 mph 17.3 mph N/A   Overcast
10:53 AM 30.2 °F 19.3 °F 24.8 °F 80% 29.88 in 5.0 mi WNW 15.0 mph 20.7 mph N/A   Haze
11:13 AM 30.2 °F 19.3 °F 24.8 °F 80% 29.88 in 5.0 mi WNW 15.0 mph 19.6 mph N/A   Haze
11:33 AM 30.2 °F 19.8 °F 24.8 °F 80% 29.89 in 7.0 mi WNW 13.8 mph - N/A   Overcast
11:53 AM 30.2 °F 18.9 °F 24.8 °F 80% 29.90 in 7.0 mi WNW 16.1 mph 20.7 mph N/A   Overcast
12:13 PM 28.4 °F 17.0 °F 23.0 °F 80% 29.90 in 7.0 mi WNW 15.0 mph - N/A   Overcast
12:33 PM 30.2 °F 20.2 °F 24.8 °F 80% 29.92 in 7.0 mi WNW 12.7 mph 19.6 mph N/A   Overcast
12:53 PM 30.2 °F 19.3 °F 23.0 °F 75% 29.92 in 7.0 mi WNW 15.0 mph 19.6 mph N/A   Overcast
1:13 PM 28.4 °F 17.0 °F 23.0 °F 80% 29.93 in 7.0 mi NW 15.0 mph 21.9 mph N/A   Overcast
1:33 PM 28.4 °F 17.5 °F 21.2 °F 74% 29.94 in 7.0 mi NW 13.8 mph - N/A   Overcast
1:53 PM 28.4 °F 17.0 °F 21.2 °F 74% 29.94 in 10.0 mi NW 15.0 mph 20.7 mph N/A   Overcast
2:14 PM 28.4 °F 17.0 °F 21.2 °F 74% 29.95 in 10.0 mi NW 15.0 mph 19.6 mph N/A   Overcast
2:33 PM 28.4 °F 16.2 °F 21.2 °F 74% 29.95 in 10.0 mi NW 17.3 mph - N/A   Overcast
2:53 PM 28.4 °F 17.5 °F 21.2 °F 74% 29.97 in 10.0 mi NW 13.8 mph 18.4 mph N/A   Overcast
3:14 PM 28.4 °F 18.5 °F 21.2 °F 74% 29.98 in 10.0 mi NW 11.5 mph - N/A   Overcast
3:33 PM 28.4 °F 18.0 °F 21.2 °F 74% 29.99 in 10.0 mi NW 12.7 mph - N/A   Overcast
3:53 PM 28.4 °F 19.1 °F 21.2 °F 74% 30.00 in 10.0 mi NW 10.4 mph - N/A   Overcast
4:14 PM 28.4 °F 17.5 °F 21.2 °F 74% 30.01 in 10.0 mi NNW 13.8 mph - N/A   Overcast
4:33 PM 28.4 °F 19.1 °F 21.2 °F 74% 30.02 in 10.0 mi NNW 10.4 mph - N/A   Overcast
4:53 PM 28.4 °F 18.0 °F 21.2 °F 74% 30.04 in 10.0 mi NNW 12.7 mph 19.6 mph N/A   Overcast
5:14 PM 28.4 °F 17.0 °F 19.4 °F 69% 30.05 in 10.0 mi NNW 15.0 mph 20.7 mph N/A   Overcast
5:33 PM 28.4 °F 17.5 °F 19.4 °F 69% 30.06 in 10.0 mi NNW 13.8 mph 21.9 mph N/A   Overcast
5:53 PM 26.6 °F 15.7 °F 17.6 °F 69% 30.07 in 10.0 mi North 12.7 mph 20.7 mph N/A   Overcast
6:14 PM 26.6 °F 14.3 °F 17.6 °F 69% 30.08 in 10.0 mi North 16.1 mph 21.9 mph N/A   Overcast
6:33 PM 26.6 °F 16.8 °F 17.6 °F 69% 30.10 in 10.0 mi NNW 10.4 mph - N/A   Overcast
6:53 PM 26.6 °F 16.8 °F 17.6 °F 69% 30.11 in 10.0 mi NNW 10.4 mph 16.1 mph N/A   Overcast
7:14 PM 26.6 °F 16.2 °F 17.6 °F 69% 30.12 in 10.0 mi North 11.5 mph 17.3 mph N/A   Overcast
7:33 PM 24.8 °F 16.9 °F 17.6 °F 74% 30.12 in 10.0 mi NNW 6.9 mph - N/A   Scattered Clouds
7:53 PM 24.8 °F 16.9 °F 15.8 °F 69% 30.13 in 10.0 mi NNW 6.9 mph - N/A   Clear
8:12 PM 23.0 °F 15.8 °F 15.8 °F 74% 30.13 in 10.0 mi NNW 5.8 mph - N/A   Clear
8:33 PM 23.0 °F 15.8 °F 15.8 °F 74% 30.14 in 10.0 mi NNW 5.8 mph - N/A   Clear
8:53 PM 21.2 °F 13.6 °F 15.8 °F 80% 30.15 in 10.0 mi NNW 5.8 mph - N/A   Clear
9:13 PM 21.2 °F 14.9 °F 15.8 °F 80% 30.15 in 10.0 mi NNW 4.6 mph - N/A   Clear
9:33 PM 21.2 °F 14.9 °F 15.8 °F 80% 30.16 in 10.0 mi NNW 4.6 mph - N/A   Clear
9:53 PM 19.4 °F 11.5 °F 14.0 °F 80% 30.16 in 10.0 mi NNW 5.8 mph - N/A   Clear
10:13 PM 19.4 °F 11.5 °F 14.0 °F 80% 30.18 in 10.0 mi NNW 5.8 mph - N/A   Mostly Cloudy
10:33 PM 21.2 °F 13.6 °F 15.8 °F 80% 30.18 in 10.0 mi NNW 5.8 mph - N/A   Overcast
10:53 PM 21.2 °F 13.6 °F 15.8 °F 80% 30.19 in 10.0 mi NNW 5.8 mph - N/A   Overcast
11:13 PM 21.2 °F 14.9 °F 15.8 °F 80% 30.19 in 10.0 mi North 4.6 mph - N/A   Overcast
11:33 PM 21.2 °F 14.9 °F 14.0 °F 74% 30.20 in 10.0 mi North 4.6 mph - N/A   Overcast
11:53 PM 21.2 °F 14.9 °F 14.0 °F 74% 30.20 in 10.0 mi North 4.6 mph - N/A   Overcast